Left ArrowRight Arrow

36.17497, -115.13722

Hourly Observations for June 24, 2024

Temp ( °F °C ) Dew Point ( °F °C ) Humidity (%) Winds ( mph kmh ) Pressure ( in mb ) Visibility ( mi km ) Precip ( " mm )
12:53 am 00:53 Clear 99 37.2 52 11.1 21 21 SW 10 17 29.75 1007 10 16 0.00 0.00
1:53 am 01:53 Clear 94 34.4 51 10.6 24 24 SE 8 13 29.75 1008 10 16 0.00 0.00
2:53 am 02:53 Clear 95 35 52 11.1 24 24 S 9 15 29.76 1008 10 16 0.00 0.00
3:53 am 03:53 Clear 92 33.3 53 11.7 27 27 ESE 7 11 29.77 1008 10 16 0.00 0.00
4:53 am 04:53 Clear 92 33.3 53 11.7 27 27 Calm 29.78 1009 10 16 0.00 0.00
5:53 am 05:53 Sunny 92 33.3 53 11.7 27 27 Calm 29.80 1009 10 16 0.00 0.00
6:53 am 06:53 Sunny 93 33.9 54 12.2 27 27 E 3 6 29.81 1010 10 16 0.00 0.00
7:53 am 07:53 Sunny 95 35 54 12.2 25 25 ESE 8 13 29.82 1010 10 16 0.00 0.00
8:53 am 08:53 Sunny 97 36.1 55 12.8 25 25 ESE 8 13 29.82 1010 10 16 0.00 0.00
9:53 am 09:53 Sunny 100 37.8 56 13.3 23 23 E 8 13 29.81 1010 10 16 0.00 0.00
10:53 am 10:53 Sunny 103 39.4 55 12.8 21 21 E 14 22 29.81 1009 10 16 0.00 0.00
11:53 am 11:53 Sunny 107 41.7 54 12.2 18 18 ESE 12 19 29.78 1009 10 16 0.00 0.00
12:53 pm 12:53 Sunny 108 42.2 49 9.4 14 14 VRB 6 9 29.76 1008 10 16 0.00 0.00
1:53 pm 13:53 Sunny 110 43.3 49 9.4 13 13 S 14 22 29.73 1007 10 16 0.00 0.00
2:53 pm 14:53 Sunny 112 44.4 47 8.3 12 12 SSW 12 19 29.70 1006 10 16 0.00 0.00
3:53 pm 15:53 Sunny 111 43.9 46 7.8 12 12 WSW 13 20 29.67 1005 10 16 0.00 0.00
4:53 pm 16:53 Sunny 111 43.9 45 7.2 11 11 SSW 16 26 29.66 1004 10 16 0.00 0.00
5:53 pm 17:53 Sunny 111 43.9 43 6.1 10 10 SSW 15 24 29.64 1004 10 16 0.00 0.00
6:53 pm 18:53 Sunny 110 43.3 44 6.7 11 11 SW 15 24 29.65 1004 10 16 0.00 0.00
7:53 pm 19:53 Sunny 108 42.2 44 6.7 12 12 SW 10 17 29.66 1004 10 16 0.00 0.00
8:53 pm 20:53 Clear 105 40.6 44 6.7 13 13 SSW 8 13 29.68 1005 10 16 0.00 0.00
9:53 pm 21:53 Clear 103 39.4 46 7.8 15 15 SSW 7 11 29.70 1006 10 16 0.00 0.00
10:53 pm 22:53 Clear 102 38.9 47 8.3 16 16 SSW 7 11 29.70 1006 10 16 0.00 0.00
11:53 pm 23:53 Clear 98 36.7 48 8.9 18 18 SE 9 15 29.71 1006 10 16 0.00 0.00

Powered by Vaisala Xweather